sat.trackr.live / text

‹ back to catalog

STARLINK-35710

NORAD 66212 · 2025-244G

PAYLOAD ACTIVE UNKNOWN

§ Identity

Operator
Country
US
Launch date
2025-10-28
Launch site
AFWTR
Launch vehicle
Mass (kg)
RCS (m²)

Purposes: comms

External: N2YO · Heavens-Above · Gunter

§ Orbital elements

Epoch: 2026-09-20T13:49:12.634752Z

Period
93.85 min
Inclination
53.1596°
Eccentricity
0.0001268
Mean motion
15.34388230 rev/d
Perigee alt
461.9 km
Apogee alt
463.6 km
Semi-major
6,840.9 km
B*
5.3788e-4
RAAN
43.5456°
Arg perigee
90.7359°
Mean anomaly
269.3789°
Rev number
5,151

§ Raw data

STARLINK-357101 66212U 25244G   26263.57584068  .00017833  00000+0  53788-3 0  99912 66212  53.1596  43.5456 0001268  90.7359 269.3789 15.34388230 51518

JSON: /api/v1/satellites/66212 · /tle

For live sub-satellite position, see the globe view (requires WebGL).

§ Visibility from observer

Set your observer location to see the next 7 days of passes ≥ 10°. The values pass through the URL so the page stays shareable.

No JS? Fill the form by hand. The geolocation button needs JavaScript.